CAPE
115 167 398 509 441 236 744 592 467 394 601 674 626 591 647 758 750 690 702 934 771 961 821 421 382 578 369 589 573 695 732 629 662 753 772 838 653 833 738 825 732 870 1363
162 130 255 560 367 356 863 600 520 512 704 752 525 627 800 684 594 682 704 645 921 1073 577 624 359 439 695 616 695 503 607 534 473 605 675 669 550 569 613 614 400 574 1413
133 275 406 388 378 316 581 645 599 533 641 749 765 798 658 562 769 984 1055 728 660 867 940 843 724 688 616 498 356 492 522 401 612 536 556 270 291 644 600 564 389 626 1245
528 436 445 257 400 329 606 678 656 650 728 789 771 798 687 915 952 909 952 1220 863 873 456 763 573 410 263 374 485 423 335 262 130 149 287 346 137 581 589 489 713 1009 1098
851 989 789 358 553 341 401 701 654 699 614 559 565 912 910 826 938 946 952 957 761 677 678 560 382 457 554 568 639 448 68 0 0 170 202 299 312 278 596 589 702 834 859
675 903 497 364 683 475 322 699 699 354 248 742 703 756 778 812 923 946 988 914 735 713 561 805 872 990 836 761 598 282 62 57 92 59 150 241 165 437 402 379 279 202 457
959 866 698 769 797 442 415 769 676 238 402 625 674 603 751 804 883 736 831 638 888 851 932 803 741 673 468 380 354 300 63 64 73 32 74 272 357 533 360 251 448 309 284
938 993 921 892 890 361 254 578 515 333 630 504 596 814 867 957 756 595 658 838 924 867 914 791 450 434 541 788 839 506 178 267 32 0 72 128 98 218 514 293 328 420 462
638 906 960 725 641 271 316 475 422 517 635 509 852 584 85 21 504 761 907 734 821 906 572 470 398 570 418 471 635 234 62 73 349 0 15 0 127 544 435 272 307 385 457
818 924 981 799 698 564 397 536 292 396 523 511 541 234 42 810 671 754 389 901 743 706 540 399 197 111 76 82 94 99 401 436 932 241 26 0 3 168 498 651 413 421 349
659 838 672 724 727 279 27 32 25 0 84 379 245 5 0 4 606 284 305 892 777 544 304 86 2 0 4 60 58 40 209 769 401 250 43 0 0 148 190 300 333 318 531
639 835 255 217 189 78 5 1 0 1 2 215 223 280 58 7 322 55 376 648 407 149 32 0 0 0 65 270 164 144 251 391 446 390 185 0 0 91 191 212 401 397 380
184 773 677 418 141 40 5 8 2 2 0 85 129 2 21 280 169 0 116 119 0 104 104 34 55 63 104 128 111 141 164 298 278 412 139 5 0 47 364 259 184 406 420
53 547 729 666 322 156 73 41 16 8 5 0 21 0 1 153 342 165 127 28 3 0 0 0 0 10 112 76 96 64 25 52 57 233 272 40 1 37 308 740 505 279 393
132 66 530 939 624 340 199 122 37 37 1 0 0 0 4 134 42 48 33 27 12 0 0 0 0 10 16 0 11 18 6 21 49 68 508 208 30 11 174 735 990 800 384
121 105 290 624 803 536 300 114 70 0 0 0 0 0 4 242 367 51 26 48 9 13 13 4 0 0 3 3 199 232 208 182 242 221 39 516 181 82 126 383 1089 910 1015
239 117 122 258 282 530 410 239 157 7 0 0 0 0 0 37 757 1178 237 199 290 270 535 275 268 122 471 426 692 699 556 480 371 313 465 232 633 398 324 342 590 1040 616
711 349 161 51 133 126 130 35 9 4 0 0 0 0 0 11 363 833 308 255 1061 235 288 233 315 553 242 427 436 601 701 714 624 608 534 417 634 684 837 692 506 925 553
865 835 428 209 91 188 70 36 0 0 0 0 0 0 0 284 589 652 249 290 780 620 295 531 740 1139 776 800 1016 855 679 846 858 762 662 868 856 1009 968 1031 706 517 674
1142 1177 1098 808 657 299 338 129 14 0 0 1 0 0 112 597 433 431 334 459 525 434 876 1270 1289 1376 1286 847 670 515 144 320 882 1075 911 885 1051 1086 987 1165 1074 1073 793
1251 1384 1333 1223 1467 1190 748 583 161 85 67 76 122 201 877 890 684 881 544 419 1082 1187 1155 971 1172 1239 1101 1197 458 69 32 331 415 706 618 990 1169 1038 1060 1237 1701 1680 1441
1371 1578 1638 1554 1710 1513 1106 1075 979 871 709 561 717 788 1019 1281 1208 1223 1384 862 1159 1397 1495 1792 1573 1233 639 689 158 6 57 3 451 703 599 894 681 626 756 1014 1416 1681 1904
1482 1634 1811 1866 1988 1598 1513 1197 1224 1169 832 958 1070 1078 1155 1564 1256 1288 1616 1474 1435 1730 1133 1574 1530 1449 1110 462 393 307 45 0 0 0 394 685 209 221 137 370 1071 1516 1766
1423 1580 1863 2099 2206 2006 1833 1500 1407 973 436 539 927 1327 1642 1833 1874 1898 1921 1742 2142 1832 1685 1214 1648 1459 1225 1085 207 82 55 52 2 0 0 0 13 61 141 114 214 1385 1721
1301 1610 1965 2139 2227 1956 2061 1959 1566 1601 1315 1633 1692 2068 2045 2206 2119 2172 2167 2135 2401 2278 1835 2078 1980 1517 1597 1007 1019 1247 380 44 7 0 0 0 0 476 221 105 105 871 1338
1234 1368 1971 2220 2168 2194 2266 2212 2094 1986 1850 1802 1812 1798 1851 1906 2236 2294 2249 2364 2371 2123 1995 1818 2073 1897 1574 1604 1585 889 820 613 1 0 0 0 1 91 350 148 420 1012 591
CIN
-5 -17 -24 -1 0 -8 0 0 0 -1 0 -1 0 0 0 0 -1 0 0 0 0 0 0 -1 -9 0 -15 -2 -6 -4 -3 -11 -13 -8 -9 -9 -13 -7 -12 -14 -18 -1 -3
-15 -20 -35 -9 -5 -5 0 0 0 -1 0 0 -3 0 0 0 0 0 0 0 0 -1 0 0 -2 0 0 0 0 -3 -1 -6 -13 -9 -6 -9 -17 -10 -10 -5 -201 -15 0
-8 -13 -26 -22 -12 -5 -1 0 0 -3 0 0 0 0 0 0 0 -4 0 0 0 0 0 0 0 0 -1 -2 -9 -3 -1 -2 -5 -6 -12 -7 -3 -5 -7 -5 -10 -5 0
-2 -3 -6 -43 -10 -8 -1 0 0 0 0 0 0 -1 -1 0 0 -3 0 0 -2 -2 -6 0 0 -2 -27 -11 0 -1 -4 -15 -29 -27 -4 -6 -1 -9 -6 -7 -5 -4 0
-5 -1 -4 -35 -6 -8 -4 0 0 0 -1 -1 -2 -2 0 0 0 0 0 0 -2 -1 0 0 -4 0 0 -1 0 -7 -9 0 0 -30 -9 -3 -9 -25 -3 -3 -1 0 -2
-7 0 -35 -28 -1 -1 -6 0 0 -5 -5 0 -1 0 0 0 0 0 0 0 0 0 0 0 0 0 0 0 0 -28 -28 -29 -30 -2 -22 -14 -15 -10 -5 -3 -4 -5 0
-2 -1 -1 -3 0 -11 -5 0 0 -5 -7 0 -2 -1 -1 0 0 -3 0 0 0 0 0 0 0 -1 -6 -9 -20 -35 -39 -30 -5 -2 -15 -10 -3 -2 -1 -3 -1 -3 -4
-2 -1 -1 0 0 -6 -8 0 -1 -2 0 -10 -1 0 -1 -1 -2 -5 0 0 0 0 0 -1 -8 -13 -13 -6 -9 -21 -38 -36 -8 0 -6 -5 -57 -24 0 -7 -2 -1 0
-9 -5 0 -1 -6 -12 -4 0 0 -1 0 -12 0 -1 -42 -54 -6 -2 0 0 0 -2 -6 -12 -18 -15 -28 -27 -23 -48 -56 -44 -27 -1 -2 0 -66 -19 -3 -5 -1 -1 0
-2 -1 -2 0 0 0 -1 0 0 -1 0 -2 -1 -9 -61 0 -7 -5 -27 0 0 -1 -9 -23 -40 -49 -58 -61 -63 -60 -42 -40 -13 -8 -2 0 -7 -60 -15 -2 -1 0 -1
-4 -2 -1 -1 0 -12 -61 -31 -25 -21 -29 -2 -1 -12 0 -35 -8 -2 -17 -1 -1 -18 -35 -60 -8 0 -23 -75 -69 -48 -65 -24 -16 -17 -32 0 0 -68 -44 -22 -11 -5 0
-2 -1 -27 -10 -8 -36 -29 0 0 -97 -7 -9 -1 -1 -20 -25 -12 -2 -13 -15 -23 -54 -25 0 0 0 -49 -18 -35 -50 -20 -4 -5 -7 -41 0 0 -89 -60 -47 -15 -8 -2
-7 -3 -1 -2 -10 -16 -37 0 0 -87 0 -20 -1 -30 -21 -21 -14 0 -24 -22 0 -58 -30 -16 -37 -21 -9 -5 -3 -19 -7 -3 -5 -21 -55 -71 0 -95 -61 -52 -50 -16 -6
-33 -4 -1 -1 -5 -4 -4 -7 -44 -68 -93 -27 -7 0 -13 -65 -12 -2 -1 -3 -2 -1 0 0 0 -3 -23 -2 -2 -3 -3 -3 -16 -11 -34 -80 -11 -107 -72 -37 -34 -31 -8
-17 -43 -3 -1 -1 0 -1 -1 -8 -41 -91 -51 0 0 -50 -31 -4 -2 -2 -2 -5 0 0 0 0 -3 -9 0 -2 -2 -2 -2 -3 -3 -34 -70 -82 -31 -89 -46 -22 -24 -37
-16 -30 -2 -1 -1 -1 -1 -19 -53 0 0 0 0 0 -11 -20 -1 -3 -2 -2 -2 -1 -1 -1 0 -1 -1 -3 -4 -5 -5 -8 -4 -2 -3 -49 -73 -85 -99 -83 -36 -39 -13
-3 -9 -26 -1 -2 -1 -1 -2 -3 -96 0 0 0 0 0 -14 -1 -12 -2 -7 -5 -2 -8 -2 -7 -14 -2 -4 -3 -4 -21 -17 -3 -6 -3 -2 -30 -54 -63 -86 -79 -48 -50
-4 -9 -19 -52 -9 -6 -2 -2 -2 -1 0 0 0 0 0 -33 -6 -2 -2 -6 -6 -4 -1 -3 -3 -2 -3 -4 -10 -11 -5 -8 -3 -5 -4 -2 -6 -20 -47 -68 -90 -67 -67
-3 -2 -4 -12 -19 -3 -20 -14 0 0 0 0 0 0 -10 -29 -1 -1 -10 -6 -3 -3 -2 -2 -1 -2 -2 -3 -5 -5 -9 -4 -3 -3 -12 -8 -2 -2 -43 -45 -61 -66 -74
-4 -2 -3 -3 -3 -2 -2 -6 -80 0 0 -39 0 0 -42 -3 -3 -1 -2 -2 0 -2 -6 -4 -12 -2 -2 -3 -3 -3 -8 -6 -11 -3 -2 -2 -6 -7 -2 -34 -29 -45 -68
-3 -3 -3 -2 -1 -1 -5 -4 -39 -95 -112 -118 -83 -17 -1 0 -1 0 -2 -4 -2 -2 -10 -14 -11 -3 -4 -5 -3 -16 -46 -24 -27 -1 -3 -3 -7 -8 -6 -4 -13 -16 -30
-2 -3 -2 -2 -2 -5 -12 -16 -7 -5 -13 -24 -13 -3 -1 0 -2 -1 -7 -12 -6 -2 -8 -2 -1 -1 -3 -2 -10 -25 -21 -5 -11 -14 -3 -12 -7 -2 -4 -3 -2 -4 -3
-9 -18 -16 -1 -8 -11 -4 -6 -16 -4 -12 -11 -2 -2 -9 -4 -13 -6 -1 -7 -1 -1 -2 -2 -1 -2 -1 -10 -6 -3 -8 0 0 0 -5 -6 -7 -6 -9 -12 -14 -12 -6
-4 -17 -29 -15 -11 -6 -2 -1 -4 -22 -43 -27 -5 -3 -1 -1 -2 -1 -1 -4 -1 -6 -9 -11 -4 -7 -12 -6 -4 -18 -23 -14 -1 0 0 0 -1 -2 -11 -8 -1 -8 -10
-5 -7 -33 -37 -13 -3 -6 -4 -4 -5 -13 -2 -5 -2 -10 -4 -11 -2 -1 -3 -1 -5 -5 -1 -1 -1 -5 -19 -9 -5 -2 -21 -2 0 0 0 0 -6 -24 -5 -7 -13 -6
-6 -4 -20 -49 -52 -34 -30 -26 -7 -1 -2 -4 -5 -7 -3 -2 -5 -10 -1 -1 -4 -1 -2 -6 -1 -1 -10 -8 -8 -19 -8 -4 -3 0 0 0 -1 -4 -20 -22 -3 -10 -26
Wind_Speed
9 10 8 7 6 6 12 19 16 11 8 7 9 12 19 18 21 21 23 25 28 30 29 28 29 29 28 26 24 22 21 20 20 19 20 20 20 21 22 24 24 23 24
11 9 9 7 5 6 12 16 15 9 11 8 9 12 16 19 20 18 19 27 30 31 30 29 29 27 25 23 22 22 21 21 21 21 21 21 22 21 21 22 12 21 23
11 10 9 7 5 3 16 15 13 7 8 8 9 10 13 15 16 18 22 25 29 29 28 28 28 26 25 23 23 22 22 21 21 21 21 20 22 22 20 18 25 20 22
11 11 10 7 4 3 17 14 14 7 7 8 9 10 8 9 4 7 21 24 28 29 27 27 28 27 27 26 25 23 22 21 21 21 19 19 22 22 20 11 19 20 22
11 12 8 8 4 5 14 10 12 8 6 7 7 5 6 6 1 4 8 16 21 24 23 21 27 30 28 27 26 24 21 21 19 18 21 18 16 22 22 22 21 21 22
11 11 11 9 8 8 13 17 12 7 6 5 6 3 2 1 3 2 8 11 15 20 27 25 26 26 24 23 21 21 18 17 14 14 22 19 18 20 21 21 20 20 21
15 13 15 13 8 6 12 14 10 7 6 5 4 2 3 3 3 2 5 8 15 15 23 18 20 20 17 17 15 16 17 16 16 20 20 20 19 20 20 20 19 19 19
17 16 17 13 10 8 6 7 6 4 2 3 3 2 0 2 2 2 5 6 10 10 1 9 19 16 15 13 10 16 18 16 17 7 20 16 19 19 19 18 18 18 18
18 15 13 12 9 6 9 10 5 3 3 3 2 1 2 1 2 5 3 4 2 3 13 12 12 15 15 15 14 16 17 17 12 12 20 20 21 20 19 18 17 15 15
19 16 16 11 8 7 9 13 5 2 1 4 2 1 1 2 5 6 2 4 5 5 11 15 15 17 17 17 16 15 15 11 15 19 19 20 20 19 19 18 15 13 13
20 18 17 15 10 9 6 7 5 4 3 4 1 2 1 2 17 9 4 5 8 12 18 20 18 17 18 17 17 16 14 15 15 15 17 19 18 18 17 17 16 15 13
23 22 20 16 13 11 9 9 5 6 7 5 1 3 3 5 19 8 9 13 14 20 21 20 18 17 16 17 16 15 14 12 12 15 16 17 16 16 15 14 14 14 13
24 25 22 19 14 10 9 10 8 2 10 5 2 4 7 23 25 12 14 23 19 22 22 19 18 17 13 15 15 16 13 14 12 13 13 15 14 13 13 12 11 12 11
24 25 22 19 17 10 10 6 8 2 10 8 4 6 10 21 22 21 15 10 18 18 14 18 17 16 16 15 16 18 15 11 10 9 11 12 12 11 10 10 11 10 10
24 24 25 22 20 7 15 17 4 7 12 13 11 4 21 18 9 14 14 15 16 14 13 17 16 15 18 17 15 18 16 11 11 9 9 9 9 8 8 9 8 8 9
23 25 25 25 24 20 15 22 1 14 17 17 17 18 17 16 15 11 15 16 17 18 18 16 17 18 19 19 20 20 15 16 13 7 7 6 7 7 7 8 8 10 7
21 24 25 25 25 24 21 12 10 15 7 10 24 21 20 17 16 17 15 17 18 16 17 16 14 14 19 21 15 13 16 13 11 11 6 6 7 7 7 7 8 8 6
20 22 23 24 25 23 19 14 10 11 14 16 23 21 21 20 19 19 18 20 14 18 17 15 20 21 20 18 16 11 7 10 5 6 4 5 4 4 6 6 7 6 6
18 21 20 21 24 22 23 20 14 15 23 17 18 27 24 23 21 21 20 21 19 20 20 21 21 22 23 23 25 24 14 2 11 4 6 5 4 4 4 4 5 5 6
18 20 21 19 20 23 24 24 11 19 24 23 20 25 24 24 21 21 22 22 21 21 21 22 23 23 23 23 24 26 27 14 16 14 15 8 4 6 3 3 3 2 4
18 21 19 18 18 20 24 24 19 20 22 16 22 25 23 22 21 21 22 21 21 21 22 22 23 23 24 24 26 25 28 16 26 20 14 16 20 14 14 10 4 2 2
21 22 22 23 19 23 23 24 22 18 20 23 22 21 22 22 21 21 21 21 21 21 9 6 22 24 24 20 23 27 25 23 15 20 16 17 12 16 14 11 13 10 9
21 24 24 22 21 24 24 24 23 21 20 22 21 21 21 21 20 19 18 18 19 16 16 13 7 11 23 25 19 20 26 25 29 27 18 15 17 20 23 14 10 11 10
22 25 26 25 24 24 24 23 23 23 20 20 20 19 19 19 18 18 17 14 12 16 21 16 8 15 17 26 25 22 23 24 27 28 25 25 23 21 19 22 21 12 6
26 25 26 25 24 24 23 22 22 22 21 20 20 18 18 18 17 16 13 9 8 7 4 14 19 23 23 22 28 28 27 25 24 24 28 26 24 21 25 24 22 10 4
25 25 25 25 24 23 23 22 21 20 20 17 15 16 16 10 12 12 11 10 9 8 7 12 15 18 19 22 23 26 27 30 28 27 27 27 26 23 19 16 20 19 22
Wind_Direction
330 335 293 291 297 358 56 77 74 82 94 109 95 83 80 78 79 77 78 81 88 99 99 100 107 108 109 116 124 125 134 134 138 121 117 117 120 126 129 139 128 107 101
354 344 297 296 297 20 65 78 78 90 82 94 96 83 79 79 78 73 71 88 101 110 104 108 111 117 117 118 126 119 120 135 138 127 113 107 114 133 146 146 245 87 93
303 8 351 313 329 335 82 84 83 93 86 95 94 86 80 77 72 71 77 87 106 113 100 103 115 119 115 113 121 125 120 127 141 143 144 144 97 133 154 174 111 85 93
291 281 21 13 347 18 90 92 90 97 104 92 90 83 86 76 76 53 77 84 106 116 103 98 107 110 114 109 111 120 124 134 142 140 154 166 109 124 156 55 80 89 107
296 281 346 38 28 61 92 97 93 98 108 92 86 96 86 71 112 34 45 63 76 85 74 68 89 106 110 109 111 113 128 137 147 155 136 165 172 112 125 131 102 107 123
311 318 42 65 67 81 97 102 98 100 104 97 81 106 102 83 229 331 41 50 58 70 85 81 87 133 131 131 132 130 143 154 169 171 115 72 181 95 118 126 122 111 126
3 1 59 78 70 81 99 102 101 101 97 92 92 114 217 227 245 338 23 47 66 61 77 61 159 155 159 155 160 153 147 154 159 113 105 80 80 102 112 123 105 124 117
14 21 57 67 68 77 100 108 113 132 131 111 140 68 293 255 326 311 38 49 57 49 329 29 163 169 168 170 178 148 145 165 142 247 67 29 63 84 108 110 116 115 128
19 12 29 49 56 56 91 109 113 164 200 194 145 109 46 348 240 230 31 228 2 4 193 200 195 176 173 168 165 148 140 155 183 187 95 44 82 100 110 107 107 98 103
23 11 28 32 35 63 86 95 88 158 168 214 203 87 359 21 210 227 14 247 240 249 214 195 192 173 166 164 160 161 156 181 166 104 78 54 82 99 99 100 89 77 89
27 16 26 41 47 66 79 81 96 207 232 234 183 49 272 216 195 222 253 249 239 220 189 165 177 178 172 164 152 157 155 143 160 147 39 68 83 93 99 100 94 97 86
42 37 39 45 57 67 80 83 66 228 229 247 242 256 242 236 209 235 237 224 222 193 168 159 168 179 187 188 156 167 165 179 176 89 69 75 92 91 90 92 84 81 80
50 58 57 53 51 63 75 83 78 245 231 250 262 242 234 195 178 216 219 178 203 171 160 137 166 180 265 247 254 269 220 247 116 85 86 73 88 95 95 88 86 89 79
57 60 55 47 50 55 61 77 84 74 229 233 247 228 228 197 199 209 225 260 215 214 261 195 162 220 194 198 213 267 222 182 112 119 99 80 85 92 101 98 92 78 91
72 68 67 62 60 36 78 88 76 230 222 220 218 224 208 217 242 236 242 236 235 246 141 177 188 198 237 215 205 243 234 182 188 108 82 94 89 89 105 121 104 83 112
74 79 82 74 69 66 76 101 341 132 217 220 223 222 219 232 239 256 244 241 236 210 224 200 209 234 243 245 256 249 223 231 210 129 138 99 98 105 113 127 137 141 109
75 88 86 91 83 81 84 73 77 100 91 173 214 218 223 235 247 237 256 246 243 259 238 192 174 181 230 258 215 210 230 205 196 191 131 134 90 115 120 132 149 147 120
80 90 98 95 93 85 67 68 55 68 104 115 129 224 227 221 232 236 243 241 306 233 204 220 251 257 243 227 225 206 183 201 129 48 90 84 92 89 158 143 144 154 159
80 96 93 95 100 83 86 83 73 65 100 103 112 204 220 224 224 235 251 245 273 244 258 272 265 272 273 273 285 268 257 139 204 58 37 146 50 44 68 133 155 162 170
89 105 105 99 96 109 120 109 68 93 123 142 147 211 211 208 222 225 234 250 263 249 291 290 282 278 279 272 285 288 306 0 343 350 345 14 33 22 28 66 128 107 182
103 115 109 100 100 119 143 157 106 115 138 136 176 217 225 215 216 228 237 254 236 272 284 300 306 279 291 307 313 329 305 349 296 337 357 347 335 351 351 0 17 2 193
124 128 129 131 108 165 143 158 164 221 224 190 184 192 198 207 218 216 221 239 242 254 156 334 321 315 292 343 339 320 329 336 0 336 352 351 357 347 352 355 352 352 355
120 139 142 130 125 150 146 154 142 192 193 186 191 188 191 188 192 190 193 206 232 208 215 29 131 42 293 302 358 353 329 327 316 321 344 358 351 335 331 343 350 350 348
116 131 151 144 144 149 153 146 145 137 169 177 177 183 184 172 180 190 193 171 166 217 257 3 56 10 360 320 332 344 339 336 329 327 332 329 329 332 336 332 329 345 6
131 128 136 142 140 142 142 162 144 161 154 163 170 177 181 193 175 171 157 106 123 99 150 9 352 339 335 339 317 320 325 332 335 335 330 336 336 340 328 328 330 341 311
135 135 130 134 139 142 143 147 155 149 176 196 206 222 205 185 83 122 70 62 52 60 50 14 2 356 349 342 338 326 326 322 328 326 327 328 328 338 343 339 340 338 341